GOES 18

Last updated on Sat Apr 13 2024 01:02:16 GMT+0100 (British Summer Time)

1 51850U 22021A 24103.14386468 .00000088 00000+0 00000+0 0 9990 2 51850 0.0406 51.5187 0000356 270.8434 153.2470 1.00272549 7795
UTC large
Height (km)
Speed (km/s)
/
Latitude / Longitude
Inclination (degrees)
Orbital Period (minutes)
Azimuth
Elevation
Range (km)
Doppler Factor

Next 0 passes for location: London (51.5072 / 0.1276)

Sorry there are no passes over London.